Location: Cussy
(47.0410°N, 4.6412°E)
Time: 19:48:43
(UTC+00:00)

Lacrosse 5 rocket - Pass Details

Date: 30 November 2020
Orbit: 462 x 633 km, 57.0° (Epoch: 27 January)

Event Time Altitude Azimuth Distance (km) Brightness Sun altitude
Rises 18:27:11 0° 271° (W) 2,511 6.0 -25.3°
Reaches altitude 10° 18:29:39 10° 286° (WNW) 1,623 4.6 -25.7°
Enters shadow 18:31:49 22° 320° (NW) 1,077 3.1 -26.1°
